CZ-3C DEB, 48550

Orbit data source: Space-Track

CZ-3C DEB, 48550 is space debris in HEO originally from a launch on Fri, 24 Feb 2012 UTC launched from the Xichang Space Center, China (XSC). Debris objects in space refer to the collection of defunct objects orbiting the Earth. Examples of debris include non-operational satellites, rocket bodies, and fragments generated from explosions, collisions, or faulty payload assembly.

Loading next visibility...
Identifier
48550, 2012-008AV
Orbit
HEO
Country
Flag of CNCN / PRC
Related business
Manufacturer
CALT
Mission
Spacecraft
Bus & Motor
Unknown
Mass
Unknown
Launch date (UTC)
2012-02-24 (14 years ago)
Launch vehicle
Unknown
Launch site
Xichang Space Center, China (XSC)
Object type
Payload
Rocket body
Debris
Shape & HBR
Unknown shape, 0.2 m
Radar Cross Section
Medium (>0.1 m² and <1 m²)

Expand to show TLE details & history
Last TLE update: 2 days ago

TLE from 2 days ago
0 CZ-3C DEB
1 48550U 12008AV  26171.09722959 -.00000018  00000-0  00000-0 0  9993
2 48550  19.8543 175.6658 6994636 290.3974  10.9098  2.24690237 89884
Epoch: 2026-06-20T02:20Z
TLE epoch observation values (Epoch: 2026-06-20T02:20:00.636Z)
Latitude
0.00003°
Longitude
-127.62014°
Altitude
3,724.381 km
Speed
7.919 km/s
True Right ascension
11h 42m 47s
True Declination
0° 00' 00"
Sunlit
Object was in daylight at epoch
Visualization orbit readout
Latitude
Unknown
Longitude
Unknown
Altitude
Unknown
Speed
Unknown
Apparent Right ascension
Unknown
Apparent Declination
Unknown
Sunlit
N/A
Visualization observer readout
Local Sidereal Time
23:19:51
Azimuth
Unknown
Elevation
Unknown
Doppler factor
Unknown
Orbital elements
Apogee altitude
35,475.125 km
Perigee altitude
1,023.274 km
Semi-major axis
24,627.337 km
Eccentricity
0.69946
Inclination
19.8543°
RAAN
175.6658°
Arg. of periapsis
290.3974°
True anomaly
69.20926°
Mean anomaly
10.9098°
Eccentric anomaly
32.36033°
Mean motion
0.56159 °/min
Orbital period
641.04 mins
BSTAR
0
Loading maneuver chart data...
Computing Atmospheric mass density...
Loading historical data...
Loading historical data...
Loading historical data...
Loading historical data...
Loading historical data...
Loading historical data...
Loading historical data...

Documentation

Showing up to 5 results
|